Probability
0 1 1 1 0 0 0 0 0 0 0 0 0 0 0 0 0 0 0 0 0 0 0 0 0 0 0 0 0 0 0 0 0 0 0 0 0 0 0 0 0 0 0
0 0 0 0 0 0 0 0 0 0 0 0 0 0 0 0 0 0 0 0 0 0 0 0 0 0 0 0 0 0 0 0 0 0 0 0 0 0 0 0 0 0 0
0 0 0 0 0 0 0 0 0 0 0 0 0 0 0 0 0 0 0 0 0 0 0 0 0 0 0 0 0 0 0 0 0 0 0 0 0 0 0 0 0 0 0
0 1 2 3 2 1 1 1 0 0 0 0 0 0 0 0 0 0 0 0 0 0 0 0 0 0 0 0 0 0 0 0 0 0 0 0 0 0 0 0 0 0 0
1 3 8 12 10 5 4 4 2 1 0 0 0 0 0 0 0 0 0 0 0 0 0 0 0 0 0 0 0 0 0 0 0 0 0 0 0 0 0 0 0 0 0
2 7 19 30 28 20 16 12 8 4 1 0 0 0 0 0 0 0 0 0 0 0 0 0 0 0 0 0 0 0 0 0 0 0 0 0 0 0 0 0 0 0 0
4 10 25 43 49 45 38 25 15 8 3 0 0 0 0 0 0 0 0 0 0 0 0 0 0 0 0 0 0 0 0 0 0 0 0 0 0 0 0 0 0 0 0
6 11 23 36 49 57 51 34 18 11 7 2 0 0 0 0 0 0 0 0 0 0 0 0 0 0 0 0 1 1 0 0 0 0 0 0 0 0 0 0 0 0 0
8 12 18 22 29 38 39 28 15 9 7 4 2 1 0 0 0 0 0 0 0 0 0 0 0 0 2 3 3 2 1 0 0 0 0 0 0 0 0 1 3 3 3
9 14 15 12 11 14 17 15 9 5 5 4 3 2 1 0 0 0 0 0 0 0 0 0 0 2 6 9 9 6 3 0 0 0 0 0 0 0 2 6 11 15 16
7 10 10 6 3 4 6 8 7 5 5 6 6 4 2 1 0 0 0 0 0 0 0 1 2 4 9 12 12 10 6 2 1 0 0 0 1 2 7 15 23 32 39
3 5 5 3 0 1 3 6 7 7 8 12 13 10 5 3 3 3 3 4 3 2 3 6 7 6 6 8 9 8 5 3 1 0 1 2 2 5 19 36 45 51 57
6 4 2 1 0 0 2 5 9 11 14 21 27 23 13 9 10 11 13 20 25 25 27 27 20 10 6 6 6 4 3 2 1 1 3 4 4 9 35 64 73 69 68
27 19 12 9 5 1 1 6 16 24 31 43 50 45 35 30 30 29 31 43 59 64 65 60 42 22 13 10 6 2 1 1 1 2 5 9 14 28 58 85 90 84 80
62 47 36 32 20 6 3 13 30 45 56 65 69 67 64 61 61 60 57 62 76 85 85 80 64 43 32 28 21 12 5 2 4 5 6 16 37 61 81 94 95 92 90
86 74 65 62 46 24 17 30 54 70 73 72 73 77 81 82 83 85 81 77 77 78 78 77 71 59 53 51 44 30 15 8 12 17 14 21 50 78 92 97 98 98 96
95 91 88 85 76 60 49 58 77 85 79 71 68 72 80 87 92 94 92 86 78 71 70 74 71 63 57 55 48 32 16 12 18 26 25 26 47 77 94 98 100 100 99
99 99 98 97 94 87 81 81 86 83 71 62 60 61 69 82 91 94 92 88 80 75 78 83 78 65 49 40 30 16 7 8 15 24 26 30 50 77 94 99 100 100 100
100 100 100 98 96 93 89 84 79 69 52 42 42 47 57 74 87 91 90 89 85 84 90 93 86 69 46 30 19 9 3 3 9 16 18 24 44 71 90 97 98 99 99
99 99 97 95 92 90 83 72 61 47 33 27 29 36 50 68 80 86 87 89 90 92 93 92 86 71 48 27 15 9 4 3 6 8 9 11 21 45 72 87 91 94 95
90 92 93 91 86 83 75 59 41 30 26 25 24 31 42 54 68 74 78 85 93 95 94 90 84 73 48 21 8 5 3 1 2 2 2 2 5 18 40 57 67 79 85
64 68 73 75 73 72 67 50 32 26 27 25 25 28 31 38 54 64 69 79 90 94 94 92 87 76 49 17 2 1 0 0 0 0 0 1 1 5 13 20 34 52 60
32 31 36 44 55 66 66 51 33 25 23 20 19 20 19 23 38 55 66 78 85 86 84 85 87 83 61 30 12 6 2 0 0 0 0 0 0 0 1 2 11 23 26
8 7 9 17 33 53 60 47 28 16 12 11 9 7 7 9 17 34 53 67 75 74 65 63 75 83 73 51 26 11 3 0 0 0 0 0 0 0 0 0 3 5 5
0 1 2 5 13 31 41 33 17 7 3 3 2 0 0 0 2 11 26 40 51 54 40 32 49 65 64 48 25 8 2 0 0 0 0 0 0 0 0 0 0 0 0
0 0 0 0 3 16 28 23 11 3 1 0 0 0 0 0 0 2 9 20 32 35 22 16 29 44 44 31 14 3 0 0 0 0 0 0 0 0 0 0 0 0 0
Wind_Speed
12 14 19 20 19 18 17 14 13 13 13 13 14 15 15 15 15 14 14 13 12 12 11 11 12 12 11 11 12 12 11 10 10 11 11 11 11 10 9 9 11 8 10
14 13 19 21 20 19 17 15 13 12 12 12 12 13 13 13 13 13 12 11 11 10 10 9 10 10 10 10 9 10 9 8 7 7 8 8 9 8 5 7 11 8 11
14 11 15 20 20 18 17 16 14 13 13 12 12 12 12 12 12 11 10 10 10 9 8 8 8 8 8 8 7 6 6 6 5 4 5 3 3 5 7 11 11 11 10
14 10 11 18 19 18 17 17 16 15 14 13 12 11 11 11 10 10 9 9 9 9 8 8 7 7 6 6 5 4 2 2 2 1 1 1 3 5 7 10 11 10 9
11 10 12 19 18 17 17 17 16 15 15 14 13 12 11 10 9 9 8 8 7 7 6 6 6 7 7 6 5 4 3 2 2 2 1 2 3 5 8 9 9 10 9
11 9 13 18 18 17 17 16 16 15 15 14 13 12 11 10 9 9 9 9 9 8 7 7 7 6 7 7 7 6 6 6 4 2 2 4 5 9 11 10 11 10 10
10 8 12 17 17 17 17 16 15 15 15 14 13 12 11 10 11 10 10 9 9 9 9 8 8 8 8 8 8 8 9 8 5 3 3 3 4 11 14 12 11 12 11
13 8 9 16 16 16 17 17 17 16 16 15 14 12 10 8 9 11 11 11 10 10 9 9 9 10 10 10 9 8 9 9 7 4 3 3 6 11 15 15 14 14 14
12 10 7 9 13 16 17 18 18 17 17 16 14 13 12 11 10 10 11 11 11 11 10 11 11 11 11 11 11 10 11 12 7 4 5 3 6 10 15 16 16 16 16
11 11 7 5 7 7 10 16 18 17 17 16 16 15 14 12 11 11 10 10 12 13 13 13 13 13 13 13 13 12 13 12 8 6 5 6 9 12 16 16 17 18 17
9 9 8 6 5 4 4 9 13 15 16 15 13 13 11 5 5 7 9 12 15 15 15 15 16 15 15 14 15 15 14 7 7 6 6 10 13 14 15 17 17 17 18
8 8 7 6 5 4 5 4 4 5 6 6 5 6 5 4 5 7 10 14 16 17 16 17 17 16 12 6 9 12 8 9 8 7 8 13 15 15 17 19 18 18 19
11 9 8 7 6 5 3 3 2 3 3 4 5 6 4 4 4 5 4 7 8 11 8 10 10 8 7 5 6 6 7 7 6 6 9 14 15 15 13 19 20 19 19
11 11 10 10 8 7 5 4 4 5 5 5 6 7 5 4 4 4 4 4 4 4 4 4 4 6 8 8 8 8 9 6 6 5 7 14 15 15 14 17 19 20 20
11 10 12 12 11 10 8 6 6 7 7 8 7 8 8 6 7 6 6 5 5 5 6 6 6 7 8 9 9 10 9 7 6 6 6 14 16 15 15 17 19 20 20
10 9 10 14 13 11 9 9 8 8 8 7 7 8 9 8 8 7 7 6 6 6 7 6 7 7 8 8 8 9 9 7 7 8 7 9 15 17 18 20 21 21 20
11 10 12 13 13 13 12 10 7 6 5 5 6 7 8 10 11 9 7 7 6 6 5 4 5 4 5 5 5 5 6 6 7 9 8 6 8 14 19 20 21 21 20
4 4 4 4 7 8 5 4 3 3 3 3 4 4 7 9 11 9 7 6 6 4 4 4 4 3 4 4 4 4 4 4 9 8 7 7 6 7 12 18 19 19 21
2 3 2 2 1 3 4 4 4 4 4 4 4 4 6 6 8 8 7 6 5 4 4 4 4 3 3 3 3 4 5 5 8 7 8 9 8 8 7 11 17 18 20
3 2 1 2 3 2 2 2 2 3 3 4 4 5 5 5 7 6 6 6 4 4 5 4 5 5 4 4 3 5 5 6 7 8 9 7 7 9 8 8 8 9 17
1 0 2 3 1 1 0 1 1 3 3 4 5 6 5 5 6 6 5 5 6 8 9 7 5 5 5 4 2 4 6 8 11 10 9 8 10 10 9 9 6 4 6
2 1 1 1 2 1 1 2 3 3 4 4 4 6 6 7 7 5 6 6 6 6 7 7 5 3 3 6 5 2 3 5 7 9 10 9 8 7 9 8 6 4 3
2 3 4 4 4 4 4 2 2 3 4 3 4 4 6 7 7 7 7 7 8 7 8 8 8 9 7 5 8 6 5 5 2 3 4 3 4 5 6 5 5 4 3
7 6 7 7 6 6 5 3 3 3 3 4 4 5 8 8 9 9 8 9 9 7 8 8 8 8 9 7 6 8 6 4 2 3 3 4 5 3 3 3 2 2 2
8 7 7 6 7 8 6 5 2 2 3 4 5 7 9 9 9 9 8 9 10 8 8 7 7 9 9 9 7 4 4 4 4 4 5 5 3 3 1 4 1 1 1
5 5 5 4 6 5 3 1 2 2 3 4 6 8 9 10 10 12 9 7 9 8 7 8 8 9 9 8 7 6 5 5 5 5 4 3 1 3 2 1 2 2 2
Wind_Direction
161 160 160 155 153 152 149 146 141 130 122 117 115 113 111 109 108 111 115 116 117 118 116 113 112 110 109 109 112 114 116 122 130 131 127 121 116 114 114 115 114 111 109
149 158 160 156 156 155 150 145 141 134 129 125 123 122 121 118 115 114 120 123 124 124 121 117 114 113 110 108 109 114 119 124 130 129 123 121 120 116 122 145 130 126 117
141 154 159 156 157 156 150 145 146 146 144 141 137 135 134 132 130 129 131 133 136 135 132 129 125 122 119 115 112 112 114 116 118 124 120 112 125 125 113 127 135 135 132
138 144 155 156 158 155 151 149 153 157 158 157 156 152 148 146 145 145 146 146 148 148 148 147 144 139 137 135 132 131 127 113 121 167 160 177 186 163 146 140 145 145 145
133 137 152 154 157 155 153 154 158 163 165 167 168 166 163 163 163 163 162 161 161 161 164 165 162 160 164 169 172 182 208 222 233 244 276 280 266 211 186 165 162 162 162
134 137 147 151 157 159 158 160 163 165 168 172 176 177 176 176 174 176 181 180 179 179 185 187 185 187 190 196 201 210 224 240 248 257 266 269 253 208 204 190 183 182 180
134 137 145 149 155 160 162 164 167 170 173 176 181 184 188 190 185 183 193 194 195 197 201 205 200 199 204 206 214 226 228 240 248 247 248 261 231 194 198 200 198 195 196
142 141 143 154 156 158 162 167 173 176 178 181 185 187 194 206 196 187 198 208 215 217 216 218 221 208 211 214 218 224 232 244 255 251 252 260 241 213 200 198 202 206 201
144 146 148 156 164 167 169 171 176 180 182 183 185 187 195 207 214 204 203 215 223 226 224 225 220 218 219 220 221 225 232 240 246 252 258 253 242 227 210 205 204 209 209
150 155 153 156 167 171 176 177 179 185 189 189 188 191 195 199 206 210 211 219 224 227 229 229 228 228 224 223 226 232 239 242 240 236 238 242 246 233 223 214 210 209 211
157 161 158 165 171 167 176 191 186 193 197 196 195 200 201 201 212 215 217 221 226 229 232 232 234 233 230 227 229 230 237 232 233 235 230 235 239 233 224 218 216 218 218
169 171 170 172 173 173 194 205 198 208 201 200 199 202 201 194 206 220 226 230 232 233 233 233 234 237 238 229 234 235 231 227 228 229 229 234 243 242 227 214 218 223 225
174 174 180 183 178 182 206 193 205 220 209 202 203 207 211 211 216 223 220 230 231 235 232 233 237 239 237 227 230 234 234 230 233 232 233 233 243 248 223 202 209 218 224
174 181 181 184 183 194 200 194 204 211 209 209 211 211 211 218 221 226 225 217 218 223 218 211 220 230 233 227 229 242 245 236 221 227 237 239 241 234 212 202 206 212 216
175 185 183 183 190 196 197 198 201 208 210 213 210 214 215 218 222 219 218 208 206 202 209 212 222 233 238 236 232 238 248 247 230 235 234 241 238 225 217 213 209 214 215
179 188 180 188 196 198 200 203 206 207 214 214 214 214 214 221 230 227 224 212 208 205 210 213 217 225 230 229 227 228 238 237 236 241 244 244 235 227 223 221 219 217 218
180 186 184 187 197 202 207 208 206 210 214 215 224 224 221 225 229 230 223 219 213 203 202 209 223 222 231 227 224 228 235 238 248 244 240 244 241 233 230 225 221 221 220
183 189 168 183 196 207 228 255 261 262 263 248 238 236 240 234 229 230 226 225 231 213 193 197 200 211 224 224 228 236 247 254 257 249 245 247 241 242 239 230 225 223 223
91 94 107 67 324 251 239 253 266 263 274 282 279 253 249 253 244 241 235 228 226 224 214 203 197 193 214 225 236 254 252 251 254 249 247 248 248 241 237 236 230 222 221
129 118 201 190 206 172 182 238 275 301 293 282 280 278 275 265 260 247 237 222 210 227 231 210 203 197 203 205 217 251 255 255 258 251 249 253 258 251 239 240 239 228 227
42 146 235 255 255 154 241 310 283 267 264 272 278 277 285 279 265 253 249 230 214 220 229 216 201 200 209 173 193 265 255 242 246 253 256 255 253 251 241 234 225 218 233
91 31 85 227 273 221 194 223 235 244 258 261 269 282 284 281 273 246 244 242 229 222 227 216 196 181 208 171 173 211 290 279 246 244 246 248 258 256 239 228 204 196 192
208 209 193 217 222 205 204 226 293 313 311 310 300 294 289 280 274 265 245 236 234 219 222 219 201 206 228 204 189 190 217 239 279 272 256 261 286 259 237 221 192 175 199
197 197 205 214 217 217 212 209 237 253 272 275 279 285 290 289 284 275 264 249 236 219 220 222 208 215 220 228 209 212 221 211 203 285 300 304 320 332 336 294 216 183 204
201 203 209 219 223 225 220 216 237 280 288 305 319 320 310 300 286 274 261 259 243 224 220 216 212 210 209 217 213 198 210 208 198 204 266 289 310 313 291 255 309 319 151
229 223 227 230 239 238 223 170 107 62 13 353 336 324 315 307 297 285 269 258 244 220 206 214 211 208 212 211 202 189 179 180 180 182 225 262 301 320 294 339 354 17 62